{"data":{"norad_id":64914,"epoch":"2026-05-24T23:55:04.843776Z","epoch_age_seconds":75318,"freshness":"FRESH","line1":"1 64914U 25157L   26144.99658384  .00011869  00000+0  41216-3 0  9994","line2":"2 64914  53.1573 351.4425 0000649  32.4086 327.6954 15.30204551 47751","mean_motion":15.30204551,"eccentricity":6.49e-5,"inclination_deg":53.1573,"raan_deg":351.4425,"arg_perigee_deg":32.4086,"mean_anomaly_deg":327.6954,"bstar":0.00041216,"rev_number":4775,"period_min":94.105065826588,"perigee_km":474.75669931991,"apogee_km":475.64626265474,"semimajor_km":6853.3384809873,"source":"CELESTRAK","updated_at":"2026-05-25T13:38:20.621728Z"}}